Date String (YYYY-MM-DD hh:mm:ss) UTC,Instrument flags,Ambient pressure (hPa),Sample flow (lpm),Bypass flow (lpm),Sample temperature (°C),Ambient temperature (°C),ASC tube jacket temperature (°C),LED temperature (°C),Box temperature (°C),Sample RH (%),Span deviation,Mass concentration (μg/m³),Mass concentration (μg/m³),Mass concentration (μg/m³)
DateTimeUTC,F1_M11,P_M11,Q1_M11,Q2_M11,T1_M11,T2_M11,T3_M11,T4_M11,T5_M11,U1_M11,ZSPAN_M11,X0_M11,X2_M11,X1_M11
2021-11-04 14:00:00,,0829.5,5.01,0.00,24.1,23.2,00.0,33.1,25.9,15.0,0000.0,0003.68,0002.87,0002.61
2021-11-04 14:01:00,,0829.4,5.00,0.00,24.1,23.2,00.0,33.1,25.9,14.9,0000.0,0003.61,0002.84,0002.59
2021-11-04 14:02:00,,0829.4,4.99,0.00,24.1,23.2,00.0,33.2,25.9,14.7,0000.0,0003.39,0002.77,0002.55
2021-11-04 14:03:00,,0829.5,5.01,0.00,24.1,23.2,00.0,33.1,25.9,14.7,0000.0,0003.36,0002.73,0002.50
2021-11-04 14:04:00,,0829.5,5.00,0.00,24.1,23.2,00.0,33.2,25.9,14.7,0000.0,0003.32,0002.69,0002.45
2021-11-04 14:05:00,,0829.5,4.99,0.00,24.1,23.2,00.0,33.2,25.9,14.6,0000.0,0003.30,0002.62,0002.39
2021-11-04 14:06:00,,0829.5,5.01,0.00,24.1,23.2,00.0,33.2,25.9,14.7,0000.0,0003.34,0002.59,0002.36
2021-11-04 14:07:00,,0829.5,4.99,0.00,24.1,23.2,00.0,33.2,25.9,14.7,0000.0,0003.38,0002.58,0002.33
2021-11-04 14:08:00,,0829.5,5.00,0.00,24.1,23.2,00.0,33.2,25.9,14.8,0000.0,0003.84,0002.55,0002.27
2021-11-04 14:09:00,,0829.5,5.01,0.00,24.1,23.2,00.0,33.2,25.9,15.0,0000.0,0004.16,0002.52,0002.22
2021-11-04 14:10:00,,0829.5,5.00,0.00,24.1,23.2,00.0,33.2,25.9,15.2,0000.0,0004.29,0002.55,0002.24
2021-11-04 14:11:00,,0829.5,5.00,0.00,24.2,23.2,00.0,33.2,25.9,15.2,0000.0,0004.35,0002.57,0002.26
2021-11-04 14:12:00,,0829.5,5.01,0.00,24.2,23.2,00.0,33.2,25.9,15.3,0000.0,0004.39,0002.60,0002.29
2021-11-04 14:13:00,,0829.5,4.98,0.00,24.2,23.1,00.0,33.2,25.9,15.5,0000.0,0004.43,0002.66,0002.35
2021-11-04 14:14:00,,0829.5,5.01,0.00,24.2,23.1,00.0,33.2,25.9,15.5,0000.0,0004.39,0002.69,0002.41
2021-11-04 14:15:00,,0829.5,5.00,0.00,24.2,23.1,00.0,33.2,25.9,15.6,0000.0,0004.43,0002.73,0002.47
2021-11-04 14:16:00,,0829.5,5.00,0.00,24.2,23.1,00.0,33.2,25.9,15.6,0000.0,0004.99,0002.82,0002.56
2021-11-04 14:17:00,,0829.5,5.01,0.00,24.2,23.2,00.0,33.2,26.0,15.6,0000.0,0005.11,0002.89,0002.65
2021-11-04 14:18:00,,0829.5,5.00,0.00,24.2,23.2,00.0,33.2,26.0,15.6,0000.0,0005.44,0003.00,0002.74
2021-11-04 14:19:00,,0829.5,4.99,0.00,24.2,23.2,00.0,33.2,26.0,15.5,0000.0,0005.10,0003.10,0002.84
2021-11-04 14:20:00,,0829.5,5.01,0.00,24.2,23.3,00.0,33.2,26.0,15.5,0000.0,0004.71,0003.15,0002.93
2021-11-04 14:21:00,,0829.5,5.00,0.00,24.2,23.3,00.0,33.2,26.1,15.6,0000.0,0004.75,0003.20,0002.99
2021-11-04 14:22:00,,0829.6,5.00,0.00,24.2,23.3,00.0,33.2,26.1,15.7,0000.0,0004.91,0003.24,0003.05
2021-11-04 14:23:00,,0829.5,5.01,0.00,24.3,23.4,00.0,33.2,26.1,15.9,0000.0,0005.07,0003.27,0003.10
2021-11-04 14:24:00,,0829.4,5.00,0.00,24.2,23.4,00.0,33.2,26.1,16.4,0000.0,0005.29,0003.32,0003.11
2021-11-04 14:25:00,,0829.4,5.00,0.00,24.3,23.4,00.0,33.2,26.1,16.3,0000.0,0005.49,0003.35,0003.12
2021-11-04 14:26:00,,0829.4,4.99,0.00,24.3,23.4,00.0,33.2,26.1,16.5,0000.0,0005.84,0003.37,0003.13
2021-11-04 14:27:00,,0829.4,5.00,0.00,24.3,23.5,00.0,33.2,26.1,16.7,0000.0,0006.99,0003.37,0003.13
2021-11-04 14:28:00,,0829.4,5.00,0.00,24.3,23.5,00.0,33.3,26.1,16.3,0000.0,0006.98,0003.38,0003.12
2021-11-04 14:29:00,,0829.4,5.00,0.00,24.3,23.5,00.0,33.3,26.2,16.2,0000.0,0006.64,0003.35,0003.11
2021-11-04 14:30:00,,0829.4,4.99,0.00,24.3,23.5,00.0,33.3,26.2,16.4,0000.0,0006.59,0003.32,0003.09
2021-11-04 14:31:00,,0829.4,5.02,0.00,24.3,23.5,00.0,33.3,26.2,16.7,0000.0,0006.68,0003.33,0003.08
2021-11-04 14:32:00,,0829.5,4.99,0.00,24.3,23.5,00.0,33.3,26.2,16.0,0000.0,0006.74,0003.33,0003.05
2021-11-04 14:33:00,,0829.5,5.00,0.00,24.4,23.5,00.0,33.3,26.2,15.6,0000.0,0006.73,0003.32,0003.03
2021-11-04 14:34:00,,0829.5,5.00,0.00,24.4,23.6,00.0,33.3,26.3,15.3,0000.0,0006.89,0003.32,0003.00
2021-11-04 14:35:00,,0829.4,4.99,0.00,24.4,23.6,00.0,33.3,26.3,15.3,0000.0,0007.33,0003.29,0002.99
2021-11-04 14:36:00,,0829.3,5.01,0.00,24.4,23.6,00.0,33.3,26.3,15.3,0000.0,0007.18,0003.28,0002.98
2021-11-04 14:37:00,,0829.3,5.00,0.00,24.4,23.6,00.0,33.3,26.3,15.3,0000.0,0007.03,0003.27,0002.97
2021-11-04 14:38:00,,0829.4,5.00,0.00,24.4,23.6,00.0,33.4,26.3,15.2,0000.0,0005.56,0003.26,0002.96
2021-11-04 14:39:00,,0829.3,4.99,0.00,24.4,23.6,00.0,33.4,26.3,15.1,0000.0,0005.70,0003.24,0002.94
2021-11-04 14:40:00,,0829.3,5.01,0.00,24.4,23.6,00.0,33.4,26.3,15.1,0000.0,0005.99,0003.23,0002.92
2021-11-04 14:41:00,,0829.3,4.99,0.00,24.4,23.6,00.0,33.4,26.3,15.2,0000.0,0006.06,0003.24,0002.91
2021-11-04 14:42:00,,0829.3,5.00,0.00,24.5,23.6,00.0,33.4,26.3,15.3,0000.0,0005.94,0003.23,0002.92
2021-11-04 14:43:00,,0829.3,5.01,0.00,24.5,23.6,00.0,33.4,26.3,15.4,0000.0,0005.82,0003.21,0002.94
2021-11-04 14:44:00,,0829.4,5.01,0.00,24.5,23.6,00.0,33.4,26.3,15.4,0000.0,0005.73,0003.21,0002.96
2021-11-04 14:45:00,,0829.3,5.00,0.00,24.5,23.6,00.0,33.4,26.3,15.4,0000.0,0005.48,0003.22,0002.99
2021-11-04 14:46:00,,0829.3,4.99,0.00,24.5,23.6,00.0,33.4,26.3,15.4,0000.0,0005.01,0003.22,0003.02
2021-11-04 14:47:00,,0829.3,5.02,0.00,24.5,23.6,00.0,33.4,26.3,15.3,0000.0,0005.23,0003.26,0003.05
2021-11-04 14:48:00,,0829.3,5.00,0.00,24.5,23.6,00.0,33.5,26.4,15.3,0000.0,0005.14,0003.25,0003.05
2021-11-04 14:49:00,,0829.3,5.02,0.00,24.5,23.6,00.0,33.5,26.4,15.4,0000.0,0004.84,0003.23,0003.05
2021-11-04 14:50:00,,0829.4,4.99,0.00,24.5,23.6,00.0,33.5,26.4,15.3,0000.0,0004.38,0003.21,0003.03
2021-11-04 14:51:00,,0829.4,5.01,0.00,24.5,23.6,00.0,33.5,26.4,15.2,0000.0,0004.06,0003.23,0003.03
2021-11-04 14:52:00,,0829.4,4.99,0.00,24.5,23.7,00.0,33.5,26.4,15.3,0000.0,0004.07,0003.22,0003.02
2021-11-04 14:53:00,,0829.3,4.99,0.00,24.5,23.7,00.0,33.5,26.3,15.2,0000.0,0004.34,0003.22,0003.00
2021-11-04 14:54:00,,0829.3,5.01,0.00,24.5,23.7,00.0,33.5,26.4,15.3,0000.0,0004.94,0003.21,0002.95
2021-11-04 14:55:00,,0829.5,5.00,0.00,24.5,23.7,00.0,33.5,26.4,15.3,0000.0,0005.45,0003.21,0002.93
2021-11-04 14:56:00,,0829.4,4.99,0.00,24.5,23.7,00.0,33.5,26.4,15.3,0000.0,0005.41,0003.20,0002.92
2021-11-04 14:57:00,,0829.3,5.00,0.00,24.6,23.7,00.0,33.5,26.4,15.2,0000.0,0005.33,0003.19,0002.90
2021-11-04 14:58:00,,0829.4,4.99,0.00,24.6,23.7,00.0,33.5,26.4,15.2,0000.0,0005.10,0003.15,0002.86
2021-11-04 14:59:00,,0829.3,5.01,0.00,24.6,23.7,00.0,33.5,26.4,15.2,0000.0,0005.14,0003.16,0002.86
